GW3607 Weather Reports


time (UTC)temp
F
wind
direction
speed
knots
gust
knots
rain 1hr
in
rain 24hr
in
rain mn
in
humidity
%
barometer
mb
20260509024538 65 12 1.7 6.1 0.00 0.00 0.00 50 1027.8
20260509024034 65 18 1.7 5.2 0.00 0.00 0.00 52 1027.7
20260509023536 64 44 2.6 8.7 0.00 0.00 0.00 51 1027.8
20260509023043 64 349 2.6 8.7 0.00 0.00 0.00 53 1027.9
20260509022539 63 52 2.6 11.3 0.00 0.00 0.00 54 1027.8
20260509022036 63 74 2.6 11.3 0.00 0.00 0.00 54 1027.8
20260509021543 62 59 3.5 11.3 0.00 0.00 0.00 54 1027.7
20260509021034 61 9 4.3 10.4 0.00 0.00 0.00 55 1027.9
20260509020534 61 24 2.6 10.4 0.00 0.00 0.00 57 1027.8
20260509020046 61 56 3.5 9.6 0.00 0.00 0.00 56 1027.9
20260509015535 61 74 4.3 9.6 0.00 0.00 0.00 57 1028.0
20260509015035 60 20 2.6 10.4 0.00 0.00 0.00 59 1028.0
20260509014548 60 22 3.5 10.4 0.00 0.00 0.00 59 1028.0
20260509014034 60 89 3.5 10.4 0.00 0.00 0.00 60 1028.1
20260509013534 59 86 4.3 10.4 0.00 0.00 0.00 60 1028.1
20260509013053 59 91 2.6 10.4 0.00 0.00 0.00 61 1028.0
20260509012535 59 53 3.5 10.4 0.00 0.00 0.00 60 1028.1
20260509012035 59 41 3.5 12.2 0.00 0.00 0.00 61 1028.2
20260509011546 58 14 3.5 12.2 0.00 0.00 0.00 62 1028.2
20260509011034 58 86 3.5 12.2 0.00 0.00 0.00 62 1028.3
20260509010535 57 81 3.5 13.9 0.00 0.00 0.00 63 1028.3
20260509010050 57 315 2.6 13.9 0.00 0.00 0.00 64 1028.4
20260509005536 56 77 5.2 13.9 0.00 0.00 0.00 64 1028.2
20260509005036 56 116 6.1 13.9 0.00 0.00 0.00 64 1028.1
20260509004559 56 110 6.1 14.8 0.00 0.00 0.00 65 1028.0
20260509004034 55 74 6.1 15.6 0.00 0.00 0.00 65 1028.0
20260509003534 55 14 6.1 15.6 0.00 0.00 0.00 66 1027.9
20260509003046 55 56 6.1 17.4 0.00 0.00 0.00 66 1027.9
20260509002534 54 101 7.0 17.4 0.00 0.00 0.00 66 1027.8
20260509002034 54 92 7.8 17.4 0.00 0.00 0.00 66 1027.9
20260509001545 54 49 7.8 13.9 0.00 0.00 0.00 67 1027.9
20260509001034 54 82 7.0 13.0 0.00 0.00 0.00 67 1027.8
20260509000536 54 82 6.1 14.8 0.00 0.00 0.00 67 1027.8
20260509000047 53 35 6.1 14.8 0.00 0.00 0.00 67 1027.7
20260508235535 53 109 6.1 16.5 0.00 0.00 0.00 67 1027.7
20260508235036 53 47 7.0 16.5 0.00 0.00 0.00 67 1027.6
20260508234539 53 77 5.2 13.9 0.00 0.00 0.00 67 1027.7
20260508234039 53 39 7.0 13.9 0.00 0.00 0.00 67 1027.5
20260508233535 53 106 7.0 13.9 0.00 0.00 0.00 68 1027.6
20260508233101 53 85 6.1 13.9 0.00 0.00 0.00 68 1027.6
20260508232534 52 68 6.1 13.9 0.00 0.00 0.00 68 1027.5
20260508232034 52 66 7.0 13.9 0.00 0.00 0.00 68 1027.6
20260508231552 52 96 6.1 13.9 0.00 0.00 0.00 68 1027.6
20260508231036 52 82 4.3 13.9 0.00 0.00 0.00 68 1027.6
20260508230539 52 60 7.0 13.9 0.00 0.00 0.00 68 1027.4
20260508230050 52 55 5.2 15.6 0.00 0.00 0.00 68 1027.4
20260508225536 53 117 6.1 15.6 0.00 0.00 0.00 67 1027.6
20260508225039 53 83 7.0 15.6 0.00 0.00 0.00 67 1027.6
20260508224605 53 62 5.2 13.9 0.00 0.00 0.00 67 1027.4
20260508224037 53 64 6.1 13.9 0.00 0.00 0.00 67 1027.3
20260508223537 53 82 4.3 17.4 0.00 0.00 0.00 67 1027.4
20260508223047 53 104 5.2 17.4 0.00 0.00 0.00 67 1027.3
20260508222536 53 99 4.3 10.4 0.00 0.00 0.00 67 1027.3
20260508222036 53 124 4.3 10.4 0.00 0.00 0.00 67 1027.3
20260508221552 53 44 4.3 13.0 0.00 0.00 0.00 67 1027.1
20260508221037 53 62 4.3 13.0 0.00 0.00 0.00 67 1027.1
20260508220536 53 70 4.3 12.2 0.00 0.00 0.00 67 1027.1
20260508220055 53 48 4.3 9.6 0.00 0.00 0.00 66 1027.1
20260508215536 53 356 2.6 9.6 0.00 0.00 0.00 66 1027.2
20260508215038 53 64 2.6 8.7 0.00 0.00 0.00 67 1027.1
20260508214547 53 55 2.6 8.7 0.00 0.00 0.00 67 1027.2
20260508214040 53 37 2.6 12.2 0.00 0.00 0.00 67 1027.2
20260508213540 53 41 2.6 12.2 0.00 0.00 0.00 66 1027.1
20260508213042 53 97 2.6 12.2 0.00 0.00 0.00 66 1026.9
20260508212540 53 45 2.6 10.4 0.00 0.00 0.00 66 1026.8
20260508212037 53 91 3.5 10.4 0.00 0.00 0.00 66 1026.9
20260508211541 53 75 2.6 10.4 0.00 0.00 0.00 66 1026.8
20260508211037 53 33 2.6 8.7 0.00 0.00 0.00 66 1026.8
20260508210537 54 59 2.6 9.6 0.00 0.00 0.00 65 1026.8
20260508210050 54 49 3.5 9.6 0.00 0.00 0.00 65 1026.9
20260508205536 54 79 3.5 8.7 0.00 0.00 0.00 65 1026.7
20260508205036 54 53 3.5 7.8 0.00 0.00 0.00 65 1026.8
20260508204551 54 93 3.5 7.8 0.00 0.00 0.00 65 1026.9
20260508204036 54 47 3.5 8.7 0.00 0.00 0.00 64 1026.8
20260508203536 54 36 1.7 8.7 0.00 0.00 0.00 64 1026.8
20260508203055 54 104 3.5 8.7 0.00 0.00 0.00 64 1026.8
20260508202536 54 35 3.5 8.7 0.00 0.00 0.00 64 1026.6
20260508202037 54 7 2.6 10.4 0.00 0.00 0.00 64 1026.7
20260508201540 54 29 2.6 11.3 0.00 0.00 0.00 64 1026.7
20260508201037 55 56 2.6 11.3 0.00 0.00 0.00 63 1026.8
20260508200537 55 51 2.6 12.2 0.00 0.00 0.00 63 1026.6
20260508200050 55 91 1.7 12.2 0.00 0.00 0.00 63 1026.7
20260508195536 55 25 2.6 9.6 0.00 0.00 0.00 63 1026.5
20260508195039 55 10 2.6 11.3 0.00 0.00 0.00 62 1026.5
20260508194555 55 41 3.5 11.3 0.00 0.00 0.00 62 1026.5
20260508194036 55 81 2.6 10.4 0.00 0.00 0.00 62 1026.4
20260508193536 55 5 2.6 10.4 0.00 0.00 0.00 62 1026.4
20260508193045 55 357 2.6 10.4 0.00 0.00 0.00 62 1026.4
20260508192536 55 102 1.7 10.4 0.00 0.00 0.00 62 1026.4
20260508192037 55 114 4.3 14.8 0.00 0.00 0.00 61 1026.4
20260508191551 56 73 4.3 14.8 0.00 0.00 0.00 61 1026.3
20260508191036 56 347 3.5 11.3 0.00 0.00 0.00 61 1026.2
20260508190540 56 45 3.5 13.0 0.00 0.00 0.00 61 1026.3
20260508190045 56 19 4.3 13.0 0.00 0.00 0.00 61 1026.4
20260508185536 56 19 4.3 15.6 0.00 0.00 0.00 61 1026.2
20260508185040 56 72 4.3 15.6 0.00 0.00 0.00 61 1026.4
20260508184553 56 118 5.2 15.6 0.00 0.00 0.00 60 1026.4
20260508184038 56 56 4.3 14.8 0.00 0.00 0.00 60 1026.2
20260508183536 56 68 6.1 14.8 0.00 0.00 0.00 60 1026.2
20260508183053 56 112 5.2 14.8 0.00 0.00 0.00 60 1026.2
20260508182540 56 95 5.2 14.8 0.00 0.00 0.00 60 1026.2
20260508182036 56 79 5.2 14.8 0.00 0.00 0.00 60 1026.2
20260508181551 57 35 6.1 16.5 0.00 0.00 0.00 60 1026.2
20260508181036 57 31 5.2 16.5 0.00 0.00 0.00 59 1026.1
20260508180537 57 112 6.1 16.5 0.00 0.00 0.00 59 1026.0
20260508180049 57 137 6.1 16.5 0.00 0.00 0.00 59 1026.0
20260508175536 57 12 7.8 16.5 0.00 0.00 0.00 58 1026.1
20260508175037 57 29 7.0 18.2 0.00 0.00 0.00 58 1026.1
20260508174603 57 62 8.7 19.1 0.00 0.00 0.00 58 1026.0
20260508174038 58 58 8.7 19.1 0.00 0.00 0.00 58 1025.8
20260508173536 58 64 7.0 16.5 0.00 0.00 0.00 57 1026.1
20260508173048 58 70 7.8 22.6 0.00 0.00 0.00 57 1026.1
20260508172536 58 97 8.7 22.6 0.00 0.00 0.00 57 1026.1
20260508172038 58 87 6.1 15.6 0.00 0.00 0.00 57 1026.3
20260508171539 58 100 5.2 15.6 0.00 0.00 0.00 57 1026.3
20260508171036 58 62 6.1 16.5 0.00 0.00 0.00 56 1026.3
20260508170536 58 79 7.0 17.4 0.00 0.00 0.00 56 1026.1
20260508170052 58 79 7.8 17.4 0.00 0.00 0.00 56 1026.0
20260508165536 58 61 6.1 17.4 0.00 0.00 0.00 56 1026.2
20260508165036 58 54 7.8 16.5 0.00 0.00 0.00 56 1026.1
20260508164543 58 59 7.8 16.5 0.00 0.00 0.00 56 1026.1
20260508164036 58 110 6.1 16.5 0.00 0.00 0.00 56 1026.2
20260508163537 59 81 6.1 16.5 0.00 0.00 0.00 56 1026.0
20260508163043 59 96 6.1 16.5 0.00 0.00 0.00 56 1026.2
20260508162537 59 49 7.8 16.5 0.00 0.00 0.00 56 1026.1
20260508162035 59 47 7.0 14.8 0.00 0.00 0.00 55 1025.9
20260508161545 59 103 7.0 20.9 0.00 0.00 0.00 55 1026.0
20260508161037 59 71 7.8 20.9 0.00 0.00 0.00 55 1026.0
20260508160536 59 101 6.1 16.5 0.00 0.00 0.00 55 1025.9
20260508160048 59 4 7.0 14.8 0.00 0.00 0.00 55 1025.9
20260508155537 59 83 7.8 16.5 0.00 0.00 0.00 55 1025.8
20260508155036 59 4 7.8 16.5 0.00 0.00 0.00 54 1026.0
20260508154547 59 85 6.1 16.5 0.00 0.00 0.00 54 1026.0
20260508154036 59 78 7.8 16.5 0.00 0.00 0.00 54 1026.1
20260508153536 59 116 6.1 16.5 0.00 0.00 0.00 53 1026.0
20260508153046 59 113 7.0 13.9 0.00 0.00 0.00 53 1026.1
20260508152536 59 89 4.3 13.9 0.00 0.00 0.00 53 1026.1
20260508152036 60 117 6.1 13.9 0.00 0.00 0.00 52 1026.2
20260508151543 60 82 7.0 13.9 0.00 0.00 0.00 52 1026.2
20260508151035 60 85 6.1 13.9 0.00 0.00 0.00 52 1026.3
20260508150537 60 54 5.2 13.9 0.00 0.00 0.00 51 1026.3
20260508150050 60 76 6.1 13.0 0.00 0.00 0.00 52 1026.5
20260508145537 60 81 6.1 13.0 0.00 0.00 0.00 52 1026.4
20260508145037 60 75 4.3 13.0 0.00 0.00 0.00 52 1026.5
20260508144544 60 93 3.5 13.0 0.00 0.00 0.00 52 1026.7
20260508144036 60 98 5.2 13.0 0.00 0.00 0.00 52 1026.6
20260508143537 60 97 5.2 13.0 0.00 0.00 0.00 52 1026.7
20260508143055 60 119 3.5 12.2 0.00 0.00 0.00 53 1026.7
20260508142536 60 81 3.5 14.8 0.00 0.00 0.00 52 1026.7
20260508142036 60 85 4.3 15.6 0.00 0.00 0.00 53 1026.5
20260508141544 60 58 4.3 15.6 0.00 0.00 0.00 53 1026.6
20260508141035 60 98 5.2 15.6 0.00 0.00 0.00 53 1026.7
20260508140536 60 64 5.2 13.9 0.00 0.00 0.00 53 1026.6
20260508140054 60 135 5.2 13.9 0.00 0.00 0.00 53 1026.5
20260508135538 60 110 6.1 13.9 0.00 0.00 0.00 53 1026.5
20260508135036 60 57 5.2 13.9 0.00 0.00 0.00 53 1026.5
20260508134541 61 10 5.2 11.3 0.00 0.00 0.00 53 1026.6
20260508134036 61 39 5.2 12.2 0.00 0.00 0.00 54 1026.3
20260508133539 61 77 4.3 12.2 0.00 0.00 0.00 54 1026.4
20260508133055 61 72 6.1 15.6 0.00 0.00 0.00 54 1026.3
20260508132536 61 77 4.3 15.6 0.00 0.00 0.00 55 1026.4
20260508132036 60 82 6.1 15.6 0.00 0.00 0.00 55 1026.3
20260508131550 60 56 2.6 12.2 0.00 0.00 0.00 56 1026.3
20260508131036 60 83 4.3 11.3 0.00 0.00 0.00 56 1026.4
20260508130536 61 119 3.5 9.6 0.00 0.00 0.00 56 1026.4
20260508130100 61 99 3.5 9.6 0.00 0.00 0.00 56 1026.3
20260508125536 61 37 4.3 9.6 0.00 0.00 0.00 56 1026.2
20260508125036 61 69 2.6 9.6 0.00 0.00 0.00 56 1026.2
20260508124547 61 61 4.3 13.0 0.00 0.00 0.00 56 1026.2
20260508124039 61 34 4.3 13.0 0.00 0.00 0.00 55 1026.2
20260508123536 61 97 5.2 13.0 0.00 0.00 0.00 56 1026.2
20260508123052 61 95 4.3 11.3 0.00 0.00 0.00 55 1026.1
20260508122537 61 64 4.3 12.2 0.00 0.00 0.00 55 1026.3
20260508122036 61 35 3.5 14.8 0.00 0.00 0.00 56 1026.1
20260508121547 61 139 2.6 14.8 0.00 0.00 0.00 55 1026.2
20260508121036 61 115 5.2 14.8 0.00 0.00 0.00 55 1026.3
20260508120536 61 52 3.5 11.3 0.00 0.00 0.00 55 1026.2
20260508120049 62 47 3.5 10.4 0.00 0.00 0.00 55 1026.3
20260508115535 62 81 2.6 9.6 0.00 0.00 0.00 55 1026.4
20260508115037 62 59 3.5 9.6 0.00 0.00 0.00 55 1026.3
20260508114552 62 87 2.6 8.7 0.00 0.00 0.00 55 1026.4
20260508114037 62 142 2.6 9.6 0.00 0.00 0.00 55 1026.3
20260508113538 62 110 2.6 9.6 0.00 0.00 0.00 55 1026.4
20260508113046 62 91 3.5 9.6 0.00 0.00 0.00 55 1026.4
20260508112536 62 45 3.5 7.8 0.00 0.00 0.00 55 1026.4
20260508112036 62 64 1.7 7.8 0.00 0.00 0.00 55 1026.3
20260508111552 62 90 2.6 7.8 0.00 0.00 0.00 54 1026.4
20260508111036 62 93 2.6 7.8 0.00 0.00 0.00 54 1026.4
20260508110536 62 41 2.6 7.8 0.00 0.00 0.00 54 1026.4
20260508110044 63 46 0.0 8.7 0.00 0.00 0.00 54 1026.6
20260508105536 63 0 1.7 10.4 0.00 0.00 0.00 53 1026.5
20260508105039 63 77 3.5 10.4 0.00 0.00 0.00 53 1026.5
20260508104558 63 93 2.6 9.6 0.00 0.00 0.00 54 1026.5
20260508104036 63 107 2.6 9.6 0.00 0.00 0.00 53 1026.5
20260508103537 63 72 2.6 9.6 0.00 0.00 0.00 53 1026.5
20260508103051 63 68 3.5 9.6 0.00 0.00 0.00 53 1026.4
20260508102536 63 84 1.7 9.6 0.00 0.00 0.00 53 1026.4
20260508102036 64 95 1.7 9.6 0.00 0.00 0.00 53 1026.4
20260508101547 64 87 2.6 9.6 0.00 0.00 0.00 52 1026.4
20260508101036 64 93 2.6 7.8 0.00 0.00 0.00 52 1026.3
20260508100537 64 87 2.6 9.6 0.00 0.00 0.00 52 1026.3
20260508100044 65 68 3.5 9.6 0.00 0.00 0.00 51 1026.4
20260508095536 65 77 1.7 8.7 0.00 0.00 0.00 51 1026.4
20260508095039 65 101 3.5 9.6 0.00 0.00 0.00 51 1026.4
20260508094547 65 74 2.6 11.3 0.00 0.00 0.00 51 1026.4
20260508094037 65 58 3.5 11.3 0.00 0.00 0.00 51 1026.4
20260508093537 66 101 5.2 11.3 0.00 0.00 0.00 50 1026.3
20260508093045 66 117 2.6 10.4 0.00 0.00 0.00 51 1026.4
20260508092536 66 115 5.2 11.3 0.00 0.00 0.00 51 1026.3
20260508092036 66 61 3.5 11.3 0.00 0.00 0.00 51 1026.3
20260508091556 66 82 2.6 11.3 0.00 0.00 0.00 51 1026.3
20260508091036 66 82 1.7 7.8 0.00 0.00 0.00 51 1026.3
20260508090536 67 83 1.7 7.8 0.00 0.00 0.00 50 1026.2
20260508090054 67 83 3.5 9.6 0.00 0.00 0.00 50 1026.1
20260508085535 67 85 2.6 9.6 0.00 0.00 0.00 49 1026.0
20260508085035 68 85 4.3 9.6 0.00 0.00 0.00 49 1026.0
20260508084548 68 75 3.5 9.6 0.00 0.00 0.00 49 1025.9
20260508084036 68 45 3.5 9.6 0.00 0.00 0.00 48 1025.9
20260508083535 68 29 3.5 14.8 0.00 0.00 0.00 48 1025.8
20260508083039 69 61 2.6 14.8 0.00 0.00 0.00 48 1026.1
20260508082535 69 64 4.3 14.8 0.00 0.00 0.00 48 1026.0
20260508082036 69 52 2.6 15.6 0.00 0.00 0.00 48 1026.0
20260508081552 69 112 4.3 15.6 0.00 0.00 0.00 47 1026.0
20260508081036 70 62 7.0 14.8 0.00 0.00 0.00 47 1026.0
20260508080536 70 81 4.3 13.9 0.00 0.00 0.00 47 1025.9
20260508080053 70 56 4.3 13.9 0.00 0.00 0.00 48 1025.9
20260508075535 71 55 2.6 13.9 0.00 0.00 0.00 47 1026.0
20260508075037 71 87 3.5 12.2 0.00 0.00 0.00 48 1026.0
20260508074539 71 128 2.6 9.6 0.00 0.00 0.00 47 1026.0
20260508074036 72 37 2.6 11.3 0.00 0.00 0.00 47 1025.8
20260508073536 71 28 3.5 12.2 0.00 0.00 0.00 48 1025.9
20260508073045 71 41 5.2 12.2 0.00 0.00 0.00 47 1025.8
20260508072536 72 121 3.5 8.7 0.00 0.00 0.00 47 1025.9
20260508072037 71 0 2.6 9.6 0.00 0.00 0.00 47 1025.9
20260508071554 72 70 3.5 11.3 0.00 0.00 0.00 48 1025.9
20260508071036 71 35 2.6 12.2 0.00 0.00 0.00 47 1026.0
20260508070537 71 20 4.3 12.2 0.00 0.00 0.00 47 1025.9
20260508070058 72 97 2.6 10.4 0.00 0.00 0.00 46 1025.8
20260508065540 72 34 2.6 12.2 0.00 0.00 0.00 46 1026.0
20260508065037 72 134 2.6 13.0 0.00 0.00 0.00 46 1026.0
20260508064542 71 75 3.5 13.0 0.00 0.00 0.00 46 1025.9
20260508064038 72 92 2.6 9.6 0.00 0.00 0.00 46 1026.0
20260508063536 72 83 2.6 13.0 0.00 0.00 0.00 46 1026.0
20260508063039 71 332 2.6 13.0 0.00 0.00 0.00 48 1025.9
20260508062536 71 93 5.2 11.3 0.00 0.00 0.00 47 1026.0
20260508062036 71 93 5.2 13.0 0.00 0.00 0.00 48 1026.0
20260508061540 71 31 4.3 13.0 0.00 0.00 0.00 47 1026.2
20260508061037 71 44 3.5 13.0 0.00 0.00 0.00 48 1026.2
20260508060537 71 98 3.5 11.3 0.00 0.00 0.00 48 1026.2
20260508060045 71 15 2.6 11.3 0.00 0.00 0.00 48 1026.3
20260508055539 71 339 3.5 13.9 0.00 0.00 0.00 48 1026.3
20260508055037 71 81 5.2 13.9 0.00 0.00 0.00 48 1026.5
20260508054547 70 87 3.5 11.3 0.00 0.00 0.00 50 1026.4
20260508054037 70 102 3.5 13.9 0.00 0.00 0.00 51 1026.4
20260508053539 70 49 5.2 13.9 0.00 0.00 0.00 49 1026.5
20260508053050 70 42 4.3 11.3 0.00 0.00 0.00 49 1026.4
20260508052538 70 133 3.5 11.3 0.00 0.00 0.00 52 1026.6
20260508052036 71 67 3.5 11.3 0.00 0.00 0.00 51 1026.7
20260508051542 70 1 4.3 13.0 0.00 0.00 0.00 52 1026.8
20260508051036 69 356 5.2 13.0 0.00 0.00 0.00 52 1026.9
20260508050538 70 99 3.5 11.3 0.00 0.00 0.00 53 1026.9
20260508050047 70 88 3.5 11.3 0.00 0.00 0.00 54 1027.0
20260508045536 69 64 2.6 9.6 0.00 0.00 0.00 54 1027.0
20260508045038 70 101 3.5 9.6 0.00 0.00 0.00 53 1027.1
20260508044548 70 330 4.3 7.8 0.00 0.00 0.00 53 1027.1
20260508044038 70 324 3.5 8.7 0.00 0.00 0.00 53 1027.3
20260508043536 70 4 2.6 13.0 0.00 0.00 0.00 53 1027.3
20260508043045 69 105 4.3 13.0 0.00 0.00 0.00 54 1027.6
20260508042536 69 19 3.5 12.2 0.00 0.00 0.00 55 1027.7
20260508042036 69 5 3.5 10.4 0.00 0.00 0.00 55 1027.7
20260508041541 69 18 3.5 11.3 0.00 0.00 0.00 55 1027.9
20260508041036 68 45 4.3 13.9 0.00 0.00 0.00 56 1028.0
20260508040536 67 70 3.5 13.9 0.00 0.00 0.00 56 1028.3
20260508040043 68 131 4.3 10.4 0.00 0.00 0.00 55 1028.3
20260508035536 69 46 2.6 10.4 0.00 0.00 0.00 55 1028.3
20260508035036 68 69 2.6 11.3 0.00 0.00 0.00 58 1028.5
20260508034548 67 79 3.5 11.3 0.00 0.00 0.00 58 1028.5
20260508034036 68 89 2.6 8.7 0.00 0.00 0.00 58 1028.5
20260508033535 67 360 2.6 8.7 0.00 0.00 0.00 59 1028.6
20260508033109 67 18 2.6 11.3 0.00 0.00 0.00 59 1028.9
20260508032536 66 355 4.3 14.8 0.00 0.00 0.00 60 1028.9
20260508032035 66 75 6.1 14.8 0.00 0.00 0.00 59 1029.0
20260508031540 67 348 4.3 13.9 0.00 0.00 0.00 59 1029.0
20260508031039 66 351 3.5 10.4 0.00 0.00 0.00 59 1029.1
20260508030535 66 33 1.7 7.0 0.00 0.00 0.00 60 1029.1
20260508030042 67 349 2.6 9.6 0.00 0.00 0.00 59 1029.1
20260508025538 66 35 3.5 12.2 0.00 0.00 0.00 60 1029.1
20260508025037 66 89 3.5 12.2 0.00 0.00 0.00 61 1029.2